timestamp,surface_pressure_avg,surface_temp_avg,battery_voltage,lat,long
2022-10-18 00:09:00+00:00,235.9197,13.4,12.01,47.84626,-54.09684
2022-10-18 00:19:00+00:00,235.4148,13.4,12.01,47.84626,-54.09684
2022-10-18 00:29:00+00:00,236.9781,13.4,12.01,47.84626,-54.09684
2022-10-18 00:39:00+00:00,237.8948,13.4,12.01,47.84626,-54.09684
2022-10-18 00:49:00+00:00,238.3365,13.4,12.01,47.84626,-54.09684
2022-10-18 00:59:00+00:00,239.0047,13.4,12.01,47.84626,-54.09684
2022-10-18 01:09:00+00:00,236.5381,13.4,12.01,47.84626,-54.09684
2022-10-18 01:19:00+00:00,234.6981,13.42,12.01,47.84626,-54.09684
2022-10-18 01:29:00+00:00,238.4364,13.46,12.01,47.84626,-54.09684
2022-10-18 01:39:00+00:00,241.848,13.48,12.01,47.84626,-54.09684
2022-10-18 01:49:00+00:00,239.7931,13.49,12.01,47.84626,-54.09684
2022-10-18 01:59:00+00:00,241.6048,13.5,12.01,47.84626,-54.09684
2022-10-18 02:09:00+00:00,246.9314,13.5,12.01,47.84626,-54.09684
2022-10-18 02:19:00+00:00,252.1414,13.5,12.01,47.84626,-54.09684
2022-10-18 02:29:00+00:00,253.6697,13.5,12.01,47.84626,-54.09684
2022-10-18 02:39:00+00:00,257.0114,13.5,12.01,47.84626,-54.09684
2022-10-18 02:49:00+00:00,258.0147,13.5,12.01,47.84626,-54.09684
2022-10-18 02:59:00+00:00,260.1131,13.5,12.01,47.84626,-54.09684
2022-10-18 03:09:00+00:00,262.5514,13.52,12.01,47.84626,-54.09684
2022-10-18 03:19:00+00:00,269.7631,13.53,12.01,47.84626,-54.09684
2022-10-18 03:29:00+00:00,271.5413,13.54,12.01,47.84626,-54.09684
2022-10-18 03:39:00+00:00,269.7264,13.52,12.01,47.84626,-54.09684
2022-10-18 03:49:00+00:00,270.0131,13.5,12.01,47.84626,-54.09684
2022-10-18 03:59:00+00:00,275.7081,13.5,12.01,47.84626,-54.09684
2022-10-18 04:09:00+00:00,277.178,13.5,12.01,47.84626,-54.09684
2022-10-18 04:19:01+00:00,274.0164,13.5,12.01,47.84626,-54.09684
2022-10-18 04:29:01+00:00,276.8981,13.5,12.01,47.84626,-54.09684
2022-10-18 04:39:01+00:00,281.663,13.5,12.01,47.84626,-54.09684
2022-10-18 04:49:01+00:00,280.3097,13.5,12.01,47.84626,-54.09684
2022-10-18 04:59:01+00:00,280.8531,13.5,12.01,47.84626,-54.09684
2022-10-18 05:09:01+00:00,286.4497,13.5,12.01,47.84626,-54.09684
2022-10-18 05:19:00+00:00,289.438,13.5,12.01,47.84626,-54.09684
2022-10-18 05:29:00+00:00,287.6914,13.5,12.01,47.84626,-54.09684
2022-10-18 05:39:00+00:00,287.903,13.5,12.01,47.84626,-54.09684
2022-10-18 05:49:00+00:00,291.6047,13.5,12.01,47.84626,-54.09684
2022-10-18 05:59:00+00:00,291.0931,13.5,12.01,47.84626,-54.09684
2022-10-18 06:09:00+00:00,290.633,13.51,12.01,47.84626,-54.09684
2022-10-18 06:19:00+00:00,290.0864,13.5,12.01,47.84626,-54.09684
2022-10-18 06:29:00+00:00,293.1063,13.5,12.01,47.84626,-54.09684
2022-10-18 06:39:00+00:00,290.8364,13.5,12.01,47.84626,-54.09684
2022-10-18 06:49:00+00:00,286.1981,13.5,12.01,47.84626,-54.09684
2022-10-18 06:59:00+00:00,282.8514,13.5,12.01,47.84626,-54.09684
2022-10-18 07:09:00+00:00,282.1064,13.5,12.01,47.84626,-54.09684
2022-10-18 07:19:00+00:00,280.408,13.5,12.01,47.84626,-54.09684
2022-10-18 07:29:00+00:00,277.2314,13.5,12.01,47.84626,-54.09684
2022-10-18 07:39:00+00:00,274.0681,13.5,12.01,47.84626,-54.09684
2022-10-18 07:49:00+00:00,270.0581,13.5,12.01,47.84626,-54.09684
2022-10-18 07:59:00+00:00,266.4915,13.5,12.01,47.84626,-54.09684
2022-10-18 08:09:00+00:00,261.4947,13.5,12.01,47.84626,-54.09684
2022-10-18 08:19:01+00:00,256.8781,13.5,12.01,47.84626,-54.09684
2022-10-18 08:29:01+00:00,254.72799999999998,13.5,12.01,47.84626,-54.09684
2022-10-18 08:39:01+00:00,253.1847,13.5,12.01,47.84626,-54.09684
2022-10-18 08:49:01+00:00,247.6897,13.5,12.01,47.84626,-54.09684
2022-10-18 08:59:01+00:00,244.0781,13.5,12.01,47.84626,-54.09684
2022-10-18 09:09:01+00:00,245.2264,13.5,12.01,47.84626,-54.09684
2022-10-18 09:19:00+00:00,244.5764,13.5,12.01,47.84626,-54.09684
2022-10-18 09:29:00+00:00,238.8398,13.5,12.01,47.84626,-54.09684
2022-10-18 09:39:00+00:00,234.463,13.5,12.01,47.84626,-54.09684
2022-10-18 09:49:00+00:00,236.5648,13.5,12.01,47.84626,-54.09684
2022-10-18 09:59:00+00:00,238.0948,13.5,12.01,47.84626,-54.09684
2022-10-18 10:09:00+00:00,235.9231,13.5,12.01,47.84626,-54.09684
2022-10-18 10:19:01+00:00,234.9231,13.5,11.93,47.84626,-54.09684
2022-10-18 10:29:01+00:00,237.5614,13.5,11.93,47.84626,-54.09684
2022-10-18 10:39:01+00:00,237.5481,13.5,11.93,47.84626,-54.09684
2022-10-18 10:49:01+00:00,235.5181,13.5,11.93,47.84626,-54.09684
2022-10-18 10:59:01+00:00,235.4381,13.5,11.93,47.84626,-54.09684
2022-10-18 11:09:01+00:00,237.4531,13.5,11.93,47.84626,-54.09684
2022-10-18 11:19:00+00:00,237.7464,13.5,12.17,47.84626,-54.09684
2022-10-18 11:29:00+00:00,237.8831,13.5,12.17,47.84626,-54.09684
2022-10-18 11:39:00+00:00,238.1664,13.5,12.17,47.84626,-54.09684
2022-10-18 11:49:00+00:00,239.3814,13.5,12.17,47.84626,-54.09684
2022-10-18 11:59:00+00:00,241.5481,13.5,12.17,47.84626,-54.09684
2022-10-18 12:09:00+00:00,240.8297,13.48,12.17,47.84626,-54.09684
2022-10-18 12:19:01+00:00,241.0065,13.5,12.41,47.84626,-54.09684
2022-10-18 12:29:01+00:00,244.3531,13.5,12.41,47.84626,-54.09684
2022-10-18 12:39:01+00:00,247.7465,13.5,12.41,47.84626,-54.09684
2022-10-18 12:49:01+00:00,245.8181,13.5,12.41,47.84626,-54.09684
2022-10-18 12:59:01+00:00,245.1681,13.5,12.41,47.84626,-54.09684
2022-10-18 13:09:01+00:00,246.9981,13.5,12.41,47.84626,-54.09684
2022-10-18 13:19:00+00:00,249.5897,13.49,12.41,47.84626,-54.09684
2022-10-18 13:29:00+00:00,247.8198,13.5,12.41,47.84626,-54.09684
2022-10-18 13:39:00+00:00,250.9897,13.5,12.41,47.84626,-54.09684
2022-10-18 13:49:00+00:00,255.0181,13.5,12.41,47.84626,-54.09684
2022-10-18 13:59:00+00:00,258.3681,13.5,12.41,47.84626,-54.09684
2022-10-18 14:09:00+00:00,259.7798,13.5,12.41,47.84626,-54.09684
2022-10-18 14:19:00+00:00,264.3547,13.55,12.41,47.84626,-54.09684
2022-10-18 14:29:00+00:00,265.6548,13.6,12.41,47.84626,-54.09684
2022-10-18 14:39:00+00:00,266.653,13.59,12.41,47.84626,-54.09684
2022-10-18 14:49:00+00:00,268.4298,13.55,12.41,47.84626,-54.09684
2022-10-18 14:59:00+00:00,272.6063,13.5,12.41,47.84626,-54.09684
2022-10-18 15:09:00+00:00,272.7079,13.5,12.41,47.84626,-54.09684
2022-10-18 15:19:00+00:00,276.5031,13.5,12.33,47.84626,-54.09684
2022-10-18 15:29:00+00:00,284.223,13.5,12.33,47.84626,-54.09684
2022-10-18 15:39:00+00:00,289.7313,13.51,12.33,47.84626,-54.09684
2022-10-18 15:49:00+00:00,290.7847,13.52,12.33,47.84626,-54.09684
2022-10-18 15:59:00+00:00,295.4147,13.56,12.33,47.84626,-54.09684
2022-10-18 16:09:00+00:00,300.478,13.57,12.33,47.84626,-54.09684
2022-10-18 16:19:00+00:00,304.0229,13.59,12.17,47.84626,-54.09684
2022-10-18 16:29:00+00:00,306.1263,13.6,12.17,47.84626,-54.09684
2022-10-18 16:39:00+00:00,310.243,13.6,12.17,47.84626,-54.09684
2022-10-18 16:49:00+00:00,312.5597,13.6,12.17,47.84626,-54.09684
2022-10-18 16:59:00+00:00,313.9513,13.6,12.17,47.84626,-54.09684
2022-10-18 17:09:00+00:00,317.8563,13.6,12.17,47.84626,-54.09684
2022-10-18 17:19:01+00:00,321.403,13.6,12.17,47.84626,-54.09684
2022-10-18 17:29:01+00:00,321.6797,13.6,12.17,47.84626,-54.09684
2022-10-18 17:39:01+00:00,320.453,13.6,12.17,47.84626,-54.09684
2022-10-18 17:49:01+00:00,323.8113,13.6,12.17,47.84626,-54.09684
2022-10-18 17:59:01+00:00,322.9147,13.6,12.17,47.84626,-54.09684
2022-10-18 18:09:01+00:00,321.853,13.6,12.17,47.84626,-54.09684
2022-10-18 18:19:00+00:00,321.783,13.6,12.17,47.84626,-54.09684
2022-10-18 18:29:00+00:00,321.0096,13.6,12.17,47.84626,-54.09684
2022-10-18 18:39:00+00:00,317.1063,13.6,12.17,47.84626,-54.09684
2022-10-18 18:49:00+00:00,317.0863,13.6,12.17,47.84626,-54.09684
2022-10-18 18:59:00+00:00,315.5213,13.6,12.17,47.84626,-54.09684
2022-10-18 19:09:00+00:00,314.5363,13.6,12.17,47.84626,-54.09684
2022-10-18 19:19:00+00:00,312.8113,13.6,12.09,47.84626,-54.09684
2022-10-18 19:29:00+00:00,310.9014,13.6,12.09,47.84626,-54.09684
2022-10-18 19:39:00+00:00,308.9963,13.6,12.09,47.84626,-54.09684
2022-10-18 19:49:00+00:00,304.8364,13.6,12.09,47.84626,-54.09684
2022-10-18 19:59:00+00:00,301.4247,13.61,12.09,47.84626,-54.09684
2022-10-18 20:09:00+00:00,299.928,13.65,12.09,47.84626,-54.09684
2022-10-18 20:19:00+00:00,297.7797,13.7,12.09,47.84626,-54.09684
2022-10-18 20:29:00+00:00,291.9664,13.7,12.09,47.84626,-54.09684
2022-10-18 20:39:00+00:00,288.7164,13.7,12.09,47.84626,-54.09684
2022-10-18 20:49:00+00:00,285.678,13.7,12.09,47.84626,-54.09684
2022-10-18 20:59:00+00:00,280.6597,13.76,12.09,47.84626,-54.09684
2022-10-18 21:09:00+00:00,279.9497,13.8,12.09,47.84626,-54.09684
2022-10-18 21:19:00+00:00,282.7497,13.8,12.09,47.84626,-54.09684
2022-10-18 21:29:00+00:00,278.798,13.8,12.09,47.84626,-54.09684
2022-10-18 21:39:00+00:00,273.5747,13.9,12.09,47.84626,-54.09684
2022-10-18 21:49:00+00:00,269.2847,13.9,12.09,47.84626,-54.09684
2022-10-18 21:59:00+00:00,269.5564,13.9,12.09,47.84626,-54.09684
2022-10-18 22:09:00+00:00,267.3298,13.9,12.09,47.84626,-54.09684
2022-10-18 22:19:00+00:00,262.2447,13.9,12.01,47.84626,-54.09684
2022-10-18 22:29:00+00:00,258.158,13.9,12.01,47.84626,-54.09684
2022-10-18 22:39:00+00:00,259.093,13.9,12.01,47.84626,-54.09684
2022-10-18 22:49:00+00:00,256.8748,13.8,12.01,47.84626,-54.09684
2022-10-18 22:59:00+00:00,252.9714,13.8,12.01,47.84626,-54.09684
2022-10-18 23:09:00+00:00,253.9247,13.7,12.01,47.84626,-54.09684
2022-10-18 23:19:00+00:00,257.0215,13.66,12.01,47.84626,-54.09684
2022-10-18 23:29:00+00:00,254.4014,13.69,12.01,47.84626,-54.09684
2022-10-18 23:39:00+00:00,249.6414,13.7,12.01,47.84626,-54.09684
2022-10-18 23:49:00+00:00,249.5648,13.7,12.01,47.84626,-54.09684
2022-10-18 23:59:00+00:00,251.7196,13.69,12.01,47.84626,-54.09684
